ROMMA est une association bénévole à but non lucratif. Votre soutien est indispensable : ADHERER à ROMMA ou FAIRE un DON

Chambon - (38, Isère)

Oisans (2460 m)   Longitude: 06° 10' 42" E   Latitude: 45° 01' 32" N Station partenaire n°803
 

Détail journalier du     <<     >>

Température Humidité Vent Dir Rafale Dir. rafale Neige 1 Neige 2
Heure (°C) (%) (km/h) (km/h) (cm) (cm)
01:00 3.8972NE7NE50
02:00 3.4994NNE9NNE40
03:00 3.3942NE7NE40
04:00 3.9742SSE10SSE40
05:00 5.0361ESE8ESE50
06:00 7.1184ESE12O219
07:00 8.9178NE24NE50
08:00 9.0175NE20NE50
09:00 11.0146NE11NE59
10:00 12.9134NE11NE30
11:00 12.3164SSO11O230
12:00 12.0179OSO18OSO225
13:00 12.92110OSO18OSO230
14:00 13.1337O16O20
15:00 12.84010OSO20OSO20
16:00 12.34515OSO26OSO20
17:00 12.44816OSO30OSO20
18:00 12.84917OSO31O10
19:00 11.95117O30O10
20:00 11.85116OSO25OSO00
21:00 9.95914OSO20OSO00
22:00 9.26210OSO15OSO30
23:00 9.5568SO16OSO30
minuit 8.9585OSO14OSO315

Graphique du 16-08-2019

 

Serveur OMMA